User: anonymous   Login
Location: Newark
(50.8922°N, 11.6094°E)
Time: 03:44:39
(UTC+00:00)
Language:

LightSail 2 - Orbit

View from above orbital plane
View from above orbital plane
View from above satellite
View from above satellite

Ground track
Ground track

The orbit data is extracted from the following two-line orbital elements,

1 44420U 19036AC  20058.43277904 +.00005765 +00000-0 +12737-2 0  9999
2 44420 024.0111 088.7737 0018810 023.4121 336.7225 14.54577090034137
Epoch (UTC): 27 February 2020 10:23:12
Eccentricity: 0.0018810
inclination: 24.0111°
perigee height: 697 km
apogee height: 724 km
right ascension of ascending node: 88.7737°
argument of perigee: 23.4121°
revolutions per day: 14.54577090
mean anomaly at epoch: 336.7225°
orbit number at epoch: 3413

The dashed part of the orbit path shows where the satellite is in the earth's shadow,  

DLR